RH
12 11 11 11 11 11 11 10 10 10 10 10 10 10 10 11 11 12 12 13 15 15 15 13 12 12 12 12 12 13 10 8 13 18 22 19 13 13 12 11 10 9 9 7 10 15 15 15 14 10 9 13 16 18 18 19 25 34 44 54 61 61 55 45 33 29 32 32 28 29 31 32 36 36 34 40 50 56 59 59 58 61 64 64 63 66 73 74
10 10 9 10 10 10 10 10 9 9 9 9 9 9 9 9 10 10 11 12 12 13 15 13 13 12 12 12 13 14 10 12 22 23 18 16 13 12 11 10 9 8 8 8 12 18 18 16 14 11 12 17 20 19 21 21 24 41 50 52 55 53 44 34 28 25 28 29 28 31 32 35 40 35 33 51 65 61 64 67 59 62 67 62 58 60 64 65
9 10 10 10 10 10 11 10 10 10 10 10 9 9 9 9 9 9 10 11 11 12 12 13 12 12 13 12 13 13 13 21 27 23 16 14 13 12 11 10 10 9 9 10 15 21 19 16 13 13 13 16 20 20 24 21 23 39 45 49 56 46 33 25 24 24 24 26 28 32 36 44 49 42 39 56 69 62 61 66 61 63 65 53 47 49 51 53
11 11 11 11 12 12 11 11 11 11 10 10 10 10 10 10 9 8 8 9 10 11 11 12 11 12 13 12 13 12 19 29 27 21 15 12 13 12 11 10 10 10 10 10 15 18 17 16 14 11 13 21 26 21 24 25 23 33 38 47 53 38 27 23 21 22 23 24 27 31 36 45 50 50 50 57 70 70 59 56 56 55 52 45 41 44 45 48
12 12 12 12 12 12 12 12 11 11 11 10 10 9 9 9 9 9 9 8 8 9 10 12 11 12 12 12 13 14 26 35 25 17 14 13 13 12 12 11 10 10 9 11 15 16 15 15 12 12 15 23 29 24 27 27 23 30 35 38 38 27 23 22 18 20 23 24 28 32 37 42 47 55 57 58 69 68 56 52 51 47 44 43 41 42 43 44
13 13 13 12 12 12 12 12 11 12 11 11 11 9 9 9 9 9 9 9 9 9 9 10 12 12 12 13 13 19 30 33 22 14 14 13 14 13 12 12 11 11 11 13 16 15 15 13 10 15 19 21 26 23 23 22 19 27 33 28 24 22 20 18 19 23 25 26 31 35 38 42 48 56 54 53 59 55 50 50 48 46 43 43 42 41 42 42
13 13 13 12 12 12 12 12 12 11 11 11 11 10 9 8 9 10 10 10 10 10 9 10 11 11 13 13 19 34 34 22 17 14 15 14 13 14 13 14 13 13 13 14 16 14 14 13 11 14 16 20 25 22 20 20 18 24 32 29 20 20 19 18 24 26 28 30 32 34 37 42 48 51 49 49 51 47 47 46 44 45 42 42 43 42 41 41
13 12 12 12 12 12 12 12 12 11 12 11 11 10 9 9 11 11 11 11 11 12 11 11 11 12 15 14 24 40 29 16 16 15 15 15 14 14 13 15 14 13 14 14 15 13 13 14 13 14 15 21 23 22 26 27 29 28 29 28 20 19 20 20 27 28 29 31 32 35 39 42 43 44 48 50 48 44 43 43 42 41 41 41 42 41 39 37
12 11 11 11 10 11 11 11 12 12 11 11 10 9 8 10 13 14 14 13 13 12 12 12 13 14 15 17 28 33 20 14 16 15 16 16 16 15 14 15 14 14 14 13 13 12 13 14 15 15 16 21 19 20 25 27 35 32 28 30 22 20 20 20 26 27 28 30 32 37 41 41 38 41 50 49 45 43 42 41 41 40 40 41 40 40 38 35
11 10 10 9 9 9 9 10 11 10 10 10 9 8 9 12 14 15 14 13 13 13 13 13 14 17 18 24 34 27 16 15 15 16 16 15 17 16 15 15 13 14 14 14 13 13 13 14 17 15 13 17 20 25 25 24 32 31 29 32 27 23 20 19 24 26 28 29 30 35 39 38 34 44 55 49 42 41 41 41 40 39 40 38 38 37 35 34
11 11 10 8 8 8 8 9 9 10 9 8 8 9 11 13 14 15 15 15 16 16 16 16 19 20 19 24 29 21 14 16 15 16 16 16 17 17 16 15 13 14 15 15 14 14 15 15 17 17 17 17 23 31 29 28 32 29 28 31 33 29 21 21 22 25 29 29 30 32 37 38 37 48 55 46 41 40 41 42 39 38 38 35 34 33 32 32
12 11 9 8 7 7 8 8 8 9 8 8 9 11 13 14 16 17 18 20 20 20 19 21 22 20 22 24 21 17 16 16 16 16 16 16 16 16 17 15 15 15 15 16 15 15 14 15 17 19 22 22 26 32 31 31 27 24 26 30 40 35 24 23 22 24 28 31 31 29 40 48 46 51 49 42 40 39 41 41 39 38 36 34 31 29 29 29
12 11 8 7 7 7 7 7 8 8 7 9 12 13 15 17 18 18 19 19 18 19 17 19 20 19 30 30 18 15 17 16 17 16 16 17 16 15 16 17 17 16 16 16 15 15 14 16 18 20 24 26 28 27 27 28 23 27 31 29 37 42 38 28 21 24 26 32 28 26 50 59 49 48 44 40 40 40 43 43 41 39 37 34 31 28 27 27
12 10 8 7 7 7 7 7 8 7 8 12 14 15 17 19 19 16 16 16 15 15 14 18 21 25 33 27 15 16 17 16 16 16 17 18 17 15 16 17 17 16 16 15 16 15 14 16 17 22 26 25 27 27 30 32 26 30 39 41 38 41 47 32 22 27 26 31 29 37 67 62 44 45 42 40 40 41 46 44 42 41 39 38 34 31 30 28
11 9 7 6 7 7 7 7 7 7 11 14 14 16 18 19 19 17 17 16 16 18 19 22 23 30 35 23 14 16 17 16 16 16 17 18 19 19 18 17 16 16 15 14 16 16 15 16 19 28 30 29 33 34 40 46 40 36 45 59 54 44 52 39 24 30 27 27 29 44 69 58 43 46 41 39 40 41 46 44 43 41 39 40 38 36 34 32
9 8 6 7 7 7 8 7 7 9 14 15 16 18 22 24 24 21 18 18 23 27 30 30 24 30 35 22 15 17 16 16 16 15 15 17 19 20 19 18 16 16 16 15 15 16 16 17 23 33 35 37 39 36 51 65 62 57 50 52 50 43 51 46 33 36 32 30 35 43 58 55 47 45 40 40 41 42 46 44 42 41 40 39 39 39 38 37
7 6 6 7 7 7 8 7 8 12 15 15 16 20 26 31 32 29 23 19 25 26 26 24 19 27 30 19 15 18 18 17 16 15 16 17 19 21 21 18 16 16 15 15 16 17 17 20 30 37 37 40 40 43 65 74 62 63 58 49 48 40 41 47 44 42 39 40 44 44 51 53 46 44 43 41 41 44 45 43 41 40 40 40 40 40 39 39
6 6 6 7 7 7 7 7 11 14 15 15 18 25 28 26 25 29 28 22 22 26 25 22 22 32 32 20 18 20 19 18 16 16 17 18 19 20 21 20 19 18 17 18 18 18 21 29 37 40 41 43 45 51 62 60 49 54 59 55 56 49 48 55 52 47 46 48 49 47 50 50 45 44 44 42 42 44 43 42 41 40 41 41 41 41 41 40
5 6 7 6 7 7 7 9 12 12 17 19 17 22 25 25 26 25 25 25 27 31 31 29 31 35 31 21 19 19 18 18 17 16 18 20 19 18 21 22 18 20 27 29 28 30 35 41 46 49 53 49 48 51 49 45 44 51 55 53 54 56 58 59 53 50 48 48 51 51 51 50 47 47 46 43 42 42 43 41 40 41 40 41 41 41 41 41
6 7 5 6 7 7 8 12 13 12 24 32 26 25 29 36 39 31 32 37 36 35 32 32 30 25 23 21 20 19 18 18 16 18 21 20 19 19 22 21 21 30 39 39 39 39 40 49 56 55 54 49 46 47 45 42 47 54 56 56 60 64 62 55 51 50 49 53 55 49 50 51 48 48 46 45 44 44 45 43 43 43 41 41 41 41 41 42
7 6 5 8 8 9 10 12 13 15 31 44 40 43 49 52 48 37 41 43 36 36 32 27 23 19 20 20 19 21 21 20 17 19 21 19 21 24 28 30 36 45 47 46 46 39 38 53 59 48 43 47 45 43 45 46 50 56 57 62 68 67 63 54 51 50 48 56 57 48 51 53 48 49 47 45 48 48 46 45 45 43 42 42 41 41 41 41
6 5 7 10 10 12 11 13 17 21 36 42 41 56 64 61 52 39 40 40 33 33 30 24 21 20 19 17 18 20 22 24 22 21 21 21 26 30 37 41 43 48 47 49 51 46 50 56 50 41 42 48 46 42 49 53 55 55 57 66 69 61 60 59 57 55 49 54 57 50 53 56 53 53 51 50 52 51 47 45 46 43 43 42 41 42 41 40
4 6 10 12 12 12 14 18 17 17 24 27 38 57 57 47 43 38 40 44 40 35 33 30 24 23 22 18 18 19 21 26 27 25 21 24 30 35 45 47 45 48 48 49 50 52 57 51 41 41 46 50 48 45 53 59 60 56 51 58 61 55 57 62 62 60 54 54 55 52 57 62 59 58 57 55 54 53 50 48 48 46 45 45 43 43 42 43
5 11 13 14 13 11 19 23 20 25 23 19 33 45 41 37 36 38 45 49 44 36 35 31 24 25 25 19 18 21 25 25 26 26 20 26 34 39 47 48 49 55 54 50 50 52 52 43 39 41 42 48 51 52 58 60 62 63 55 50 53 53 55 60 61 58 57 54 50 54 65 66 63 67 65 58 55 55 53 52 51 49 48 47 46 46 46 47
10 14 13 13 12 14 23 25 32 44 34 25 36 38 34 34 31 34 46 53 46 35 34 30 24 24 20 19 21 24 30 27 24 24 20 24 34 42 45 42 49 59 56 50 48 50 47 39 38 38 40 49 53 55 58 58 62 66 56 45 47 52 54 60 61 61 65 65 55 57 73 76 67 70 70 61 60 60 56 55 54 51 49 48 47 48 49 49
14 14 12 13 12 18 28 31 40 48 43 39 36 32 31 28 30 34 47 66 57 35 32 29 25 24 20 22 25 30 39 33 22 20 21 23 28 40 47 46 50 52 51 50 48 51 49 43 41 39 45 53 55 54 52 57 65 61 50 48 52 53 55 60 61 67 72 69 60 54 67 81 73 68 69 64 63 64 59 56 53 49 48 49 49 48 48 49
14 11 12 14 13 20 32 41 43 44 55 53 32 27 28 25 31 34 47 72 58 31 30 29 23 23 22 23 26 35 43 38 27 22 23 24 26 38 50 56 55 49 51 52 48 48 47 47 45 42 49 54 53 50 48 55 59 50 45 52 57 54 56 58 57 67 69 62 64 57 58 79 80 67 64 65 67 67 63 58 53 50 49 50 51 50 50 51
13 11 12 15 16 17 25 39 40 34 39 36 24 25 27 27 33 38 51 59 39 27 31 28 21 19 25 26 27 38 41 38 39 32 24 22 26 39 48 51 53 55 56 49 47 50 45 45 46 43 49 51 48 45 47 52 54 54 56 57 60 60 60 58 55 64 63 60 71 65 60 81 86 70 64 66 70 70 67 62 58 55 54 53 53 53 52 52
12 12 12 15 22 22 19 23 28 27 25 22 24 25 25 30 37 49 56 39 26 32 30 26 22 23 36 36 29 38 37 33 40 35 26 24 27 36 44 44 45 53 54 48 56 54 40 42 43 42 49 48 43 44 46 47 46 57 61 51 57 67 65 58 56 60 59 64 74 64 63 83 87 77 71 66 70 74 68 62 62 60 56 57 57 54 54 58
12 15 13 14 23 27 29 28 22 21 25 24 25 25 31 42 52 65 58 32 31 39 30 29 29 30 46 46 37 42 40 35 39 33 28 31 30 35 45 47 45 52 56 59 68 56 45 54 50 44 46 39 38 44 45 47 48 56 62 52 53 68 70 61 59 64 67 75 80 65 57 64 74 85 83 73 80 85 73 63 65 63 59 62 65 65 65 67
14 17 17 16 19 23 42 53 34 20 26 29 30 37 47 56 64 66 46 29 37 42 35 37 41 43 47 43 41 46 46 45 44 40 38 40 40 41 49 54 58 66 68 65 68 61 58 61 51 45 43 38 43 43 40 52 57 53 55 54 50 59 69 70 73 78 75 78 78 66 53 49 68 91 89 81 87 89 80 69 65 65 68 73 75 75 74 73
17 21 21 22 22 18 33 48 34 21 26 31 41 56 63 58 51 48 44 37 35 37 37 37 45 50 48 49 47 45 50 49 43 46 49 48 51 54 57 61 66 70 65 58 59 61 57 49 45 49 46 41 47 47 43 51 57 50 48 57 67 72 69 70 78 75 63 60 60 54 47 52 75 88 81 81 85 85 84 74 66 68 75 80 79 76 77 76
18 25 26 26 25 19 22 30 28 24 28 41 55 63 66 57 36 33 51 50 35 37 41 40 50 53 52 60 54 46 53 50 43 47 49 51 58 62 61 60 61 60 56 54 53 58 60 49 49 54 47 41 46 53 52 46 51 55 48 54 78 89 79 75 78 69 62 62 58 50 45 60 84 82 73 80 81 79 82 76 71 76 78 80 79 76 77 78
20 28 30 26 26 24 22 27 28 28 37 54 65 58 49 44 35 37 54 55 46 49 49 47 53 51 49 53 47 47 53 46 47 52 47 50 60 66 65 61 58 60 64 61 49 52 56 45 44 47 40 40 46 49 50 50 57 60 49 52 70 75 75 84 81 70 74 73 61 55 53 68 89 79 69 78 79 77 78 76 75 77 78 78 79 79 78 77
23 32 30 24 27 24 24 30 30 35 47 50 54 60 51 39 44 55 62 60 54 53 54 56 55 49 48 48 46 49 45 38 51 60 54 55 62 68 68 61 58 63 71 64 47 49 51 36 37 44 39 42 47 43 44 52 55 52 52 58 60 49 52 78 82 68 72 73 67 72 73 77 85 77 71 76 77 78 78 79 79 78 80 80 80 82 77 70
29 37 30 23 27 22 24 34 31 38 49 38 40 62 62 50 56 67 67 62 58 56 58 58 54 50 49 48 49 50 42 37 49 61 62 62 63 64 64 61 57 60 70 68 58 59 58 49 45 45 43 43 42 41 41 42 41 50 61 57 44 38 46 73 84 70 64 63 62 68 75 83 81 74 76 75 73 80 80 80 83 80 82 83 80 79 74 67
34 38 28 23 25 21 26 36 36 40 41 37 50 64 61 59 65 74 75 65 61 62 59 52 45 44 46 47 46 47 49 48 49 55 56 55 57 58 64 67 57 55 64 66 65 63 60 64 60 46 42 42 42 46 44 41 42 54 66 54 42 50 60 68 74 75 78 74 67 58 59 76 78 69 78 81 75 79 77 78 83 80 80 81 77 72 69 66
38 37 28 22 21 21 29 33 34 37 32 43 68 69 65 68 65 73 78 67 64 64 57 51 42 37 46 52 46 45 54 58 55 54 51 51 55 55 60 66 60 60 66 67 69 64 58 64 60 45 41 44 51 55 47 47 51 52 53 48 46 54 64 65 60 68 84 83 78 72 59 67 79 80 88 89 79 76 74 76 82 81 80 77 72 69 66 62
39 41 33 21 18 22 29 26 25 32 35 54 77 70 66 72 66 72 78 68 65 61 49 48 46 44 51 53 49 46 48 53 55 55 52 51 55 57 57 59 61 66 71 71 68 60 56 59 53 45 40 40 52 57 50 52 59 57 52 50 57 60 60 63 59 63 82 85 82 82 70 70 82 84 83 78 72 72 71 73 79 78 77 75 69 65 61 56
41 47 33 16 18 22 19 17 26 45 55 66 78 70 64 69 65 69 76 70 63 54 46 49 53 55 53 48 49 48 46 52 55 57 59 56 56 62 62 61 67 74 77 75 67 60 61 55 48 52 47 40 48 53 50 49 51 60 63 58 68 72 62 59 57 62 76 75 74 82 82 81 77 65 64 64 63 67 67 68 73 73 73 71 63 56 53 52
41 50 35 18 21 18 16 25 39 61 72 71 72 68 63 66 61 59 72 76 63 49 50 58 61 61 57 52 50 47 51 59 58 56 60 57 53 57 62 65 74 79 77 69 59 59 62 51 47 60 59 50 51 48 44 41 41 55 65 59 63 69 66 61 62 75 75 55 60 79 82 84 72 51 52 59 55 59 62 60 61 60 59 57 52 49 50 49
47 46 30 23 23 14 23 48 62 76 82 72 67 63 59 62 54 46 60 68 55 46 51 59 59 59 58 55 51 53 60 64 61 59 57 56 53 50 58 70 76 78 77 67 58 60 64 56 55 64 61 54 54 49 46 47 46 52 56 58 68 72 69 62 61 80 84 64 65 74 70 77 75 54 50 55 52 55 57 54 53 51 48 47 46 46 47 46
50 39 23 25 24 12 27 57 71 79 76 64 63 62 60 63 60 54 59 58 50 49 54 57 56 52 51 52 52 57 60 55 56 58 57 61 60 52 61 74 73 71 69 60 60 66 62 47 47 63 64 59 60 54 48 47 49 55 59 62 73 74 71 75 74 79 88 80 69 64 64 71 69 57 51 51 52 53 52 51 51 48 46 44 42 41 41 42
43 35 27 26 18 15 38 61 66 67 63 58 63 63 59 63 68 67 63 57 54 54 54 55 53 49 47 52 54 54 53 49 48 51 52 55 56 59 70 73 66 67 65 58 58 65 60 41 42 63 65 60 69 67 59 56 50 54 64 65 70 75 76 83 82 78 86 79 55 54 69 67 57 55 54 48 51 52 49 50 50 47 46 42 40 39 39 39
40 36 32 28 21 28 50 62 61 61 62 65 63 58 59 61 63 66 63 59 58 54 50 48 49 51 50 51 54 54 54 49 45 48 53 53 54 65 76 71 62 69 81 84 74 70 72 55 40 48 45 38 50 53 56 68 59 52 65 68 68 75 72 67 70 82 94 78 48 47 57 48 40 49 51 48 52 53 49 48 47 45 44 42 41 38 34 35
44 44 43 39 32 41 57 65 65 60 60 67 61 54 61 61 55 60 59 53 54 55 53 50 53 56 52 52 55 53 54 55 53 57 64 64 60 62 72 73 63 68 89 100 88 76 79 65 44 47 48 35 34 36 43 59 54 42 58 73 73 75 73 70 75 89 94 78 58 53 50 40 36 38 40 44 50 52 50 47 45 45 43 43 42 38 33 32
48 49 52 45 35 45 62 68 69 62 57 65 59 46 55 61 54 54 50 43 49 55 54 57 62 59 54 57 57 50 53 60 59 59 62 67 66 61 66 69 63 73 89 90 81 67 60 58 50 50 52 41 34 36 39 49 48 38 46 64 73 78 81 79 76 72 67 63 60 53 45 44 42 35 36 45 49 50 50 47 45 45 43 40 40 39 36 32
49 48 50 46 43 53 63 62 63 62 60 67 63 50 59 69 62 60 60 56 55 52 51 59 67 68 65 63 56 55 60 58 56 62 63 63 68 67 61 59 63 75 73 62 65 58 46 55 59 48 45 44 37 38 41 44 46 44 45 54 63 73 80 81 79 71 59 55 51 41 40 47 45 39 40 46 49 49 47 47 45 43 43 41 37 35 33 31
48 51 48 49 53 55 56 56 58 56 59 74 72 57 63 72 64 64 71 68 59 55 60 64 67 73 76 70 65 72 73 57 50 65 71 62 64 66 54 44 53 66 57 45 57 60 50 63 71 58 52 48 36 39 47 44 42 44 46 49 54 62 70 74 76 72 62 58 52 45 52 57 46 39 42 45 49 49 45 46 45 42 44 44 41 39 36 35
45 49 43 49 59 56 51 53 56 54 60 77 74 57 63 73 65 66 73 70 65 67 73 75 72 76 81 81 82 84 80 68 57 62 70 65 61 65 56 39 40 56 58 49 55 53 39 49 68 60 53 50 42 44 49 44 43 46 44 46 50 55 64 68 67 67 69 70 65 62 68 63 45 40 46 47 48 46 43 45 44 42 44 46 46 47 42 39
36 36 33 40 51 52 48 50 62 68 68 75 74 63 68 72 65 70 77 74 76 79 79 82 80 75 76 83 90 87 83 81 70 64 73 71 59 56 52 42 36 47 56 55 59 56 37 45 70 60 44 49 47 40 44 44 44 49 49 48 50 55 64 65 60 64 70 69 66 68 66 52 39 44 49 46 46 45 43 45 44 42 44 46 49 51 47 42
32 29 36 47 50 56 61 61 70 76 66 67 72 69 72 74 70 73 70 67 77 80 76 79 77 72 79 86 85 84 86 82 67 59 63 60 51 44 43 46 44 43 51 55 60 68 56 53 65 54 45 61 55 33 36 46 51 59 60 51 45 49 60 61 55 55 56 51 53 58 49 32 31 42 46 43 45 45 44 44 44 44 46 47 50 50 46 41
Wind_Speed
8 8 8 7 7 7 7 8 8 8 8 8 8 9 9 8 8 8 8 7 7 7 6 6 6 6 6 8 10 13 13 13 11 7 3 3 5 5 7 8 8 9 9 9 7 8 10 7 6 9 7 4 2 2 4 4 1 3 3 2 3 2 2 4 3 1 4 4 4 6 6 10 7 4 7 10 16 13 13 13 9 11 11 12 17 21 23 21
9 9 9 9 8 8 8 9 9 9 9 9 10 9 9 9 9 9 8 8 7 7 7 6 6 6 6 8 11 14 15 13 7 6 6 5 6 7 7 8 8 8 8 8 6 8 8 5 7 5 2 2 1 3 3 3 3 3 3 3 4 4 3 2 1 1 3 7 8 8 9 11 5 4 5 8 10 13 15 11 8 9 11 15 22 26 29 31
10 10 9 9 9 9 9 9 10 10 10 10 10 10 10 10 9 9 9 9 8 7 7 7 6 7 8 9 11 14 14 10 4 4 6 7 7 8 8 8 8 8 8 7 6 8 7 8 11 7 1 3 3 3 3 2 2 3 3 2 5 5 3 5 4 3 5 8 9 8 9 14 10 6 4 9 13 17 14 8 7 8 11 15 20 25 27 30
10 10 9 9 9 9 9 10 10 10 11 11 11 11 11 11 9 9 9 9 9 8 8 7 7 8 9 10 11 12 10 6 3 2 6 7 8 9 9 9 9 8 7 7 7 7 9 11 11 5 1 3 3 0 3 3 2 2 4 4 6 3 2 4 4 3 6 9 9 7 10 13 10 11 6 8 13 13 10 9 9 9 12 14 17 21 24 27
9 9 9 9 9 9 9 10 10 10 11 11 12 12 12 11 10 9 9 9 9 9 9 8 8 8 9 10 10 10 6 3 1 3 6 8 9 10 10 10 9 8 6 7 7 8 10 9 5 3 1 2 3 3 3 5 3 2 4 7 6 2 1 2 3 6 7 11 10 8 10 7 6 12 13 13 13 7 6 9 11 12 13 15 16 21 24 27
10 9 9 9 10 10 10 10 11 11 11 11 12 12 12 12 11 10 8 8 8 8 8 8 8 7 8 9 9 7 3 2 2 4 6 8 10 10 11 10 8 8 6 6 8 8 9 5 0 2 1 1 3 2 5 5 3 3 4 4 4 1 2 1 4 7 8 12 9 7 8 7 11 13 13 18 15 8 9 11 13 16 16 19 21 22 23 24
10 10 10 10 11 11 11 11 11 11 11 12 12 12 13 12 11 10 9 8 8 8 8 7 7 7 7 8 6 3 4 2 4 7 8 10 11 11 10 7 7 9 7 8 9 6 5 4 1 2 1 2 4 4 6 5 1 4 4 3 3 2 5 3 7 10 13 15 10 10 11 9 14 13 10 16 14 10 13 15 18 19 21 25 24 22 22 22
11 11 12 12 12 12 12 12 12 12 12 13 13 13 14 13 12 10 8 8 8 8 7 6 6 6 6 5 2 4 3 1 5 9 10 13 12 11 9 6 7 9 9 10 10 5 4 5 3 1 1 2 2 2 5 5 4 1 1 4 4 4 6 7 10 13 16 13 12 18 17 13 16 15 12 14 12 11 14 17 19 20 23 23 20 20 21 22
12 12 13 13 13 13 13 13 13 13 13 13 14 14 14 14 13 10 9 8 8 7 7 5 4 4 5 3 4 4 2 2 4 7 10 14 13 11 8 6 8 9 9 11 10 5 2 3 4 2 1 3 2 4 3 3 2 0 1 3 4 5 5 8 9 12 13 8 14 21 15 11 12 12 13 12 10 11 15 16 16 17 19 17 15 18 20 21
13 13 14 14 14 14 14 14 13 13 14 14 15 15 15 13 11 10 9 8 8 7 6 4 3 2 4 4 5 4 2 2 5 6 9 13 12 11 9 7 7 7 8 11 11 4 2 2 4 2 1 2 3 5 2 3 2 3 2 4 4 4 4 7 8 10 11 7 16 21 11 7 7 7 8 8 9 12 15 14 13 15 15 13 14 17 20 21
14 15 15 16 15 15 15 14 14 14 14 15 15 15 13 12 11 10 8 7 6 4 3 2 1 3 5 5 5 3 3 3 7 8 10 13 12 10 9 6 5 6 7 9 10 7 5 5 5 3 1 1 3 5 4 1 2 3 5 6 6 2 1 4 10 9 9 7 14 21 14 12 10 8 9 7 10 13 15 14 13 14 12 12 13 15 19 20
14 15 17 17 16 15 15 14 14 14 14 15 14 13 11 10 8 7 6 5 3 2 1 1 4 5 6 7 5 2 5 5 7 9 11 14 14 9 7 4 4 4 5 6 7 8 7 8 7 4 1 1 3 3 2 3 3 4 5 3 8 7 4 1 7 8 8 6 10 15 12 12 9 9 11 10 11 13 15 13 12 12 10 10 11 12 17 19
14 16 17 17 17 16 15 14 13 14 14 13 12 11 9 7 6 6 5 5 4 4 4 6 7 6 6 4 1 5 8 7 8 10 13 16 15 10 3 4 6 4 4 5 6 7 6 6 6 2 2 1 2 2 1 3 1 2 3 2 4 6 5 6 2 8 10 7 10 6 4 6 7 9 11 10 11 14 14 12 11 10 8 9 10 11 14 18
15 16 17 17 17 16 15 14 13 14 13 12 11 9 7 7 8 8 7 7 6 7 7 8 7 5 6 2 1 6 9 9 10 12 14 16 18 14 6 5 7 4 4 5 5 6 6 5 5 2 1 1 1 2 3 4 1 1 2 1 1 2 3 8 4 7 8 5 5 6 4 2 5 8 10 10 11 14 13 11 10 9 8 8 9 10 12 16
16 17 17 17 16 15 14 13 13 13 12 11 9 7 8 10 10 8 8 7 7 8 8 8 5 4 5 2 1 6 9 9 12 15 14 14 16 13 10 9 7 5 6 5 2 4 5 4 3 1 2 2 3 3 4 4 3 2 2 3 3 2 3 7 6 5 6 5 3 9 6 3 5 8 9 10 11 14 13 10 10 9 9 8 8 10 10 13
17 17 17 16 15 14 13 13 13 11 10 9 7 8 10 12 12 10 8 7 8 9 8 5 3 3 4 1 2 6 8 8 11 15 16 15 13 10 11 11 6 4 5 2 1 3 4 2 1 2 2 5 5 2 3 5 5 3 3 2 3 3 1 4 5 7 5 4 8 8 7 3 5 8 9 10 11 12 12 10 10 10 9 9 7 8 8 10
16 16 16 15 13 13 13 13 12 10 10 8 7 10 14 16 15 12 7 6 9 9 10 10 6 4 5 3 3 5 8 9 10 16 22 19 9 7 10 6 5 5 3 2 1 2 2 1 1 2 4 5 4 3 4 5 4 4 3 1 2 2 1 2 2 8 10 9 9 10 10 6 5 9 9 10 11 12 11 10 10 9 8 8 7 7 7 7
15 15 15 14 13 12 12 12 10 9 9 7 8 12 16 20 22 20 11 5 4 5 8 12 9 5 3 5 4 7 12 12 10 19 27 20 8 7 7 3 4 7 3 1 2 2 2 3 3 3 5 6 5 6 5 1 2 3 4 2 3 3 3 2 3 5 10 13 11 11 11 7 7 8 9 9 10 11 10 10 9 9 9 8 7 7 7 7
15 15 15 14 13 12 11 9 8 8 8 6 8 10 11 13 18 21 21 14 6 4 3 6 6 4 1 5 6 12 14 10 9 20 29 24 14 8 3 3 3 4 4 2 4 4 3 4 5 5 5 6 5 4 3 2 3 4 5 1 2 4 3 2 4 3 10 13 8 9 10 8 8 8 9 9 9 11 10 9 8 7 8 7 6 6 6 7
15 15 15 15 13 12 10 7 7 7 7 6 6 6 5 3 6 8 14 14 7 5 5 2 3 4 1 3 8 15 11 5 7 18 28 26 15 7 3 2 2 4 4 2 2 3 4 6 6 4 5 6 6 5 3 2 3 2 2 2 3 4 3 2 2 3 9 9 5 8 11 8 8 7 8 8 8 10 9 8 8 7 6 6 6 6 6 7
15 15 15 14 12 11 8 5 6 5 5 6 4 4 3 2 4 2 2 6 5 6 7 3 5 5 2 2 9 13 6 4 9 17 29 26 11 5 5 4 5 6 6 3 4 3 6 7 5 6 6 5 6 6 7 7 7 6 3 4 5 3 1 3 1 1 5 8 4 8 12 8 7 6 5 7 8 7 8 9 8 8 7 6 6 7 6 6
15 14 14 13 11 10 5 5 6 4 4 5 6 6 4 3 5 6 4 4 5 8 9 8 9 6 5 5 11 12 4 6 11 16 28 26 11 5 4 5 7 5 7 5 4 5 7 7 8 10 5 3 7 9 10 8 7 7 5 4 4 2 1 3 3 4 5 6 5 7 11 7 6 8 8 7 7 6 6 8 7 7 7 6 6 6 6 6
14 13 12 10 10 8 4 6 7 7 7 6 8 7 5 5 5 6 4 5 2 5 5 6 7 5 6 7 11 12 8 7 7 11 23 19 8 4 3 6 7 6 8 8 7 6 5 5 10 9 5 6 8 11 10 7 5 5 5 4 1 2 2 2 4 4 7 6 9 10 9 6 5 7 7 6 7 7 7 8 7 6 6 6 6 5 6 6
12 11 10 9 10 6 5 7 7 9 10 10 12 9 6 5 4 5 3 5 2 3 2 2 3 3 3 5 10 7 5 4 3 9 19 14 5 4 2 4 6 7 7 10 11 9 5 6 8 7 9 8 8 9 9 7 5 3 3 4 1 3 1 2 2 4 9 8 10 11 7 2 2 3 3 3 5 6 6 8 7 6 6 6 6 6 5 6
10 10 10 9 10 4 7 6 6 6 6 8 9 7 5 4 2 3 3 4 3 3 3 2 3 4 5 8 10 2 3 3 4 9 15 13 5 3 3 1 4 6 4 9 12 9 5 7 7 8 9 9 7 6 6 5 4 4 1 2 1 2 3 2 3 5 6 2 5 6 3 1 2 3 4 3 4 5 4 6 6 5 6 6 5 6 5 5
10 10 10 9 10 3 6 3 4 4 3 4 4 3 3 2 1 2 3 5 3 3 4 4 3 7 9 11 9 1 5 4 6 11 16 16 6 2 4 3 2 4 3 6 7 4 4 7 6 8 6 8 8 4 3 4 4 4 2 0 1 0 2 2 3 3 2 2 5 5 2 1 3 4 5 4 4 4 4 5 6 5 5 5 5 5 5 5
10 11 10 9 9 5 4 2 3 3 2 2 1 3 2 1 2 1 3 5 4 2 4 4 3 7 8 10 9 4 3 6 7 12 16 19 10 2 6 5 3 4 1 4 4 1 3 7 9 9 7 7 6 4 4 3 5 3 4 3 5 5 3 3 3 3 3 1 1 3 2 1 2 3 5 6 5 5 5 5 6 5 5 5 5 5 5 5
11 13 12 9 8 7 4 3 3 3 2 2 2 2 2 2 2 2 5 4 3 1 1 3 3 6 6 9 11 5 3 5 4 8 14 21 15 3 6 6 3 5 5 6 4 2 2 6 8 8 8 6 3 5 6 1 3 6 7 6 7 7 4 5 3 3 2 2 1 3 2 1 1 2 5 6 5 6 7 7 6 6 6 6 5 6 5 5
11 15 15 9 5 6 6 5 3 4 3 2 3 2 3 3 2 3 5 2 2 1 0 2 4 6 6 7 9 5 2 3 3 5 12 19 17 6 4 4 4 7 8 7 6 2 1 2 2 4 6 4 5 8 5 2 1 7 8 8 5 2 2 4 3 1 2 3 2 4 3 1 1 3 4 4 4 5 6 6 6 6 7 6 6 6 6 5
10 16 17 12 5 3 4 5 5 4 3 3 4 4 4 3 3 5 4 1 1 2 1 3 3 3 6 7 6 7 6 6 3 5 7 9 13 11 4 2 6 8 7 7 5 1 1 2 2 3 3 4 5 6 3 1 3 6 7 7 6 5 3 2 2 3 4 2 4 5 4 1 1 2 3 3 3 4 4 5 5 6 7 6 6 5 5 5
9 15 17 16 12 7 1 2 3 3 3 4 5 4 3 3 5 6 3 1 1 3 3 3 3 3 6 6 4 6 6 6 6 6 8 7 11 13 7 5 6 5 5 6 4 3 5 5 3 1 3 4 3 4 6 5 4 5 5 4 4 4 4 4 4 4 4 2 6 4 3 1 1 3 3 3 2 2 3 6 8 8 7 5 5 4 4 4
10 15 16 18 17 11 4 1 1 2 3 4 5 3 4 5 5 3 0 3 1 2 2 2 4 4 4 5 5 5 4 5 6 6 6 6 8 9 7 5 3 3 5 3 3 4 4 3 3 4 4 6 6 4 7 7 7 7 5 5 5 3 4 4 4 3 1 4 5 2 0 0 2 3 4 4 3 2 3 3 7 8 7 5 5 4 4 4
9 14 15 17 18 15 9 4 1 2 3 5 4 4 6 6 3 0 2 2 1 1 0 0 4 4 4 5 5 5 3 3 5 7 5 4 6 5 5 6 5 3 2 1 2 4 3 3 6 6 4 4 5 4 4 5 5 5 4 4 3 2 4 3 3 3 2 5 5 3 1 1 2 2 5 5 4 3 2 0 3 6 6 5 5 4 4 4
8 13 15 17 19 19 14 7 2 3 4 4 4 6 8 6 1 0 2 1 1 1 1 1 4 5 5 4 2 3 4 2 3 6 6 4 5 5 4 8 9 4 2 3 3 2 2 3 5 4 2 3 4 3 1 3 3 4 0 4 3 4 3 2 2 1 3 5 6 5 2 2 1 2 4 5 4 4 2 1 2 3 4 4 4 4 5 5
6 12 15 16 19 20 17 11 3 3 4 5 6 7 7 3 2 1 1 2 1 3 3 2 3 4 4 3 2 2 1 1 2 5 5 5 4 4 4 6 7 5 3 3 1 1 2 2 4 1 1 3 4 3 1 3 1 4 1 5 2 1 3 3 3 4 3 4 4 2 1 3 2 2 2 3 3 4 3 3 3 4 4 4 4 5 5 6
5 9 13 17 20 22 20 13 5 2 4 6 9 6 3 2 2 1 1 1 0 1 3 5 4 4 4 4 4 6 3 1 3 4 3 3 3 3 4 3 4 6 4 2 0 2 2 3 4 2 4 2 3 1 5 5 0 3 3 2 4 3 5 2 3 4 2 2 3 1 1 2 2 2 3 2 3 4 5 5 6 6 5 5 6 6 6 7
5 5 9 19 24 24 21 14 6 5 5 8 8 4 1 2 2 2 1 0 1 1 2 3 2 2 2 3 4 7 5 3 4 4 2 2 2 4 4 4 2 5 3 1 0 1 2 2 6 1 0 3 2 4 7 6 3 3 1 4 4 1 2 2 1 4 4 1 3 2 3 3 2 2 2 3 5 7 8 8 8 7 6 7 7 7 8 8
3 1 6 19 25 23 18 11 8 7 7 9 7 4 2 1 1 1 1 0 0 2 4 3 1 1 2 2 2 6 5 3 3 3 3 2 2 3 3 4 3 4 5 3 1 1 2 1 6 2 4 3 2 5 5 6 4 4 2 2 2 2 1 2 1 1 3 3 4 5 4 2 2 2 2 4 8 9 9 8 8 8 8 8 8 8 9 7
2 1 3 17 23 18 12 14 12 9 8 7 4 3 2 1 1 2 2 2 1 2 3 1 1 2 2 2 1 4 4 3 2 3 3 1 1 2 3 2 4 4 6 3 2 2 1 2 4 3 2 1 3 4 1 4 6 4 3 4 3 2 2 1 0 2 1 2 3 4 5 3 4 4 5 6 8 9 9 7 8 10 9 8 7 7 6 5
1 3 3 17 20 10 15 22 15 8 7 5 3 2 2 1 1 3 4 3 1 2 2 1 2 3 1 1 1 1 3 3 3 3 2 1 1 1 2 2 3 6 7 3 2 2 2 2 2 5 3 1 1 1 2 2 2 2 4 4 3 2 1 0 1 1 2 1 2 3 5 5 4 3 4 6 6 7 7 7 7 8 8 7 7 5 5 5
3 3 4 19 17 2 10 19 12 5 5 4 2 3 2 2 0 3 3 2 0 1 3 3 3 2 1 2 2 1 2 3 3 3 1 2 2 1 1 0 1 4 5 4 3 2 2 1 2 4 4 1 2 4 2 3 3 3 2 2 1 0 2 2 2 3 2 2 3 2 4 6 3 2 4 4 4 4 5 5 5 5 6 7 6 5 5 4
6 3 5 19 13 7 10 9 4 4 5 2 2 2 1 1 1 4 3 2 2 2 3 4 3 2 2 1 1 2 3 2 3 2 1 1 1 1 2 1 1 1 1 2 2 1 0 2 0 3 3 3 5 4 1 4 6 5 2 2 3 2 4 5 2 3 2 2 2 1 3 6 4 3 3 4 4 5 5 5 4 5 5 5 4 4 3 4
4 2 7 18 9 13 16 7 3 6 4 0 1 1 2 2 2 4 4 4 3 2 4 3 2 2 2 1 1 3 3 1 1 1 2 2 1 3 2 2 2 2 2 1 2 1 0 1 1 3 3 3 4 4 2 3 5 4 1 1 3 2 3 5 4 2 1 3 1 1 3 6 5 3 3 4 4 4 4 5 5 4 4 3 4 4 4 5
3 2 6 17 10 8 8 4 3 4 2 2 4 3 3 3 3 3 3 3 3 2 3 2 2 2 1 2 3 2 1 2 1 1 2 2 1 3 2 1 2 2 1 1 1 1 1 0 1 2 4 6 6 5 4 3 2 1 1 0 2 3 4 3 2 2 1 3 3 3 4 5 3 2 2 3 4 5 5 5 4 4 3 4 5 3 3 5
4 2 4 15 18 11 5 4 6 6 3 4 5 3 3 3 2 1 2 2 2 2 3 1 1 1 1 3 4 3 3 2 1 1 1 1 1 1 2 2 1 2 1 3 3 0 1 1 2 3 1 4 4 4 4 3 2 1 2 1 1 3 4 3 2 3 1 4 2 3 6 6 4 3 3 4 5 5 5 4 4 4 4 5 4 1 4 5
3 3 2 8 13 10 4 2 5 6 5 5 4 3 4 3 2 0 3 3 2 3 4 1 1 2 3 4 3 3 4 3 2 2 2 1 2 2 3 4 2 2 3 3 2 2 2 0 1 5 5 5 6 7 5 2 2 2 2 3 3 3 4 5 4 3 4 2 2 5 7 8 9 7 6 5 5 6 5 4 4 4 5 5 3 3 4 4
2 2 1 1 3 5 5 5 5 4 3 4 3 2 2 3 2 2 3 2 1 3 3 3 4 3 2 2 3 1 2 3 4 3 1 2 3 4 2 3 1 2 4 3 2 3 3 2 1 3 5 8 8 9 6 3 3 5 4 4 5 5 5 6 4 6 4 2 4 8 6 7 12 10 7 6 5 5 5 4 5 5 5 4 3 4 4 4
3 2 1 2 2 2 2 2 3 6 5 4 4 2 3 4 3 2 2 2 2 3 2 2 6 5 1 1 2 1 2 2 3 1 0 2 3 4 3 1 1 2 4 1 1 4 4 2 3 2 5 8 8 9 7 5 4 4 5 5 6 6 7 7 8 7 5 3 8 9 6 9 13 12 8 6 6 6 6 6 6 5 5 4 4 4 5 5
3 3 1 2 4 3 3 1 4 7 7 5 4 3 3 4 3 0 2 3 3 4 3 3 4 6 4 0 3 3 0 0 0 2 2 1 1 1 2 2 2 0 3 3 2 2 3 2 3 2 4 10 10 7 6 6 4 4 6 7 7 7 9 9 8 7 6 7 11 11 12 14 12 10 9 6 7 6 5 4 5 5 5 4 4 5 6 5
3 3 2 4 4 2 1 3 4 6 5 5 4 3 2 3 2 0 2 3 1 4 4 4 2 4 4 4 5 4 3 4 4 4 3 2 1 1 1 1 2 3 4 3 2 2 1 2 2 2 2 8 8 4 3 5 5 6 8 7 7 7 8 8 7 6 6 9 11 10 11 13 9 6 6 5 5 5 4 4 6 5 5 5 5 6 6 5
5 5 6 7 4 3 3 3 4 5 4 3 2 1 2 2 2 2 2 2 2 0 1 3 1 2 4 6 5 3 4 4 5 6 6 5 3 3 2 2 3 1 4 1 1 3 2 1 2 4 3 6 5 2 4 4 3 6 10 10 8 7 6 6 6 5 6 7 8 7 7 9 6 3 3 4 4 5 5 6 6 5 5 6 6 7 7 5
8 6 5 7 4 3 3 3 4 4 2 1 0 2 2 1 1 3 3 1 1 2 2 3 1 2 3 3 1 5 6 5 6 6 4 4 4 3 3 3 5 4 1 1 0 1 2 1 1 2 1 6 5 4 4 3 4 6 8 8 9 8 7 6 5 6 8 6 4 5 7 9 5 2 4 5 5 5 6 5 5 5 6 6 7 7 5 4
Wind_Direction
55 51 47 41 30 21 16 13 9 5 2 355 350 344 336 333 328 325 321 319 319 316 318 318 319 329 342 354 350 342 339 335 339 9 61 51 16 5 352 339 332 326 321 317 324 341 340 332 273 252 247 246 200 214 250 242 178 73 100 151 258 227 215 235 234 241 137 122 58 41 44 88 84 63 110 62 43 55 54 48 52 59 65 71 74 77 79 76
45 41 38 34 27 21 16 13 12 7 3 358 353 345 335 327 317 315 312 313 314 311 312 307 308 313 324 341 341 341 342 338 355 60 60 23 15 8 353 342 333 329 328 328 345 352 341 333 318 305 235 207 229 209 208 227 157 117 143 176 240 212 228 289 84 39 85 123 101 61 50 64 26 311 81 72 42 45 49 28 29 63 66 60 55 53 56 60
38 35 32 29 23 19 16 13 11 6 2 358 353 348 341 331 316 309 303 302 303 302 305 300 300 300 309 322 331 339 338 342 25 53 16 14 16 9 357 347 342 337 336 334 338 333 311 295 304 313 212 224 252 217 201 237 200 171 144 184 243 222 263 349 59 88 97 126 108 78 67 56 22 351 61 97 70 48 47 22 11 43 56 55 48 48 51 54
34 30 26 21 16 13 11 8 5 2 358 354 350 347 343 338 328 314 306 303 299 297 297 297 298 297 304 312 327 337 338 5 45 353 5 20 16 9 2 350 344 338 333 330 319 307 297 290 292 298 182 262 282 268 194 218 217 181 159 194 236 236 295 352 30 48 82 102 99 94 79 65 40 29 44 99 75 47 44 40 35 38 48 56 53 50 51 53
27 21 16 11 8 5 3 0 357 355 352 350 347 343 341 339 334 323 314 309 304 298 295 296 299 300 306 313 329 335 351 40 328 339 9 15 13 7 1 352 345 335 328 334 319 308 304 287 285 338 15 275 313 2 242 225 169 178 211 206 226 266 323 332 11 24 67 91 88 80 70 78 72 43 44 72 77 67 53 47 51 49 49 56 57 56 53 54
18 11 5 1 358 356 354 352 349 348 345 344 342 340 339 335 332 326 315 312 311 306 300 296 299 303 308 318 330 338 47 94 314 356 357 1 3 356 359 355 358 353 332 335 328 319 313 294 318 359 353 282 277 270 258 251 156 197 255 226 244 310 95 338 34 45 71 81 71 78 84 96 92 66 55 71 80 86 72 63 60 55 56 59 57 57 55 54
9 2 358 353 351 349 346 344 342 341 339 339 339 338 337 334 331 324 312 308 307 309 308 305 305 306 312 325 338 15 83 97 346 356 351 358 352 347 0 359 6 0 340 337 332 327 330 340 335 222 220 283 255 247 271 296 139 206 265 288 296 62 105 98 77 74 76 80 78 86 84 77 86 83 67 73 77 78 73 66 65 61 58 58 56 54 55 55
2 357 353 349 346 343 341 339 338 337 338 337 337 337 337 335 332 325 317 307 302 307 308 310 312 305 319 340 32 57 54 332 342 351 351 353 346 348 359 358 358 349 337 325 312 310 346 356 337 297 352 271 259 306 303 339 8 133 296 314 340 58 95 95 92 91 87 89 87 79 75 76 88 90 74 74 76 71 72 65 63 62 55 54 54 52 53 54
360 355 351 349 345 342 339 336 336 337 337 337 338 339 337 335 333 330 325 313 306 305 305 316 311 306 336 9 80 65 1 310 347 347 348 343 341 354 353 344 342 336 335 323 311 303 316 6 349 17 347 271 336 339 331 40 352 317 60 355 34 75 108 102 98 100 98 101 92 84 82 89 94 91 74 71 80 73 69 64 59 60 56 53 52 50 52 53
358 354 352 349 345 343 340 337 337 339 340 340 339 338 338 336 334 331 326 319 314 309 310 312 296 334 14 25 67 68 313 335 13 360 350 339 341 351 345 337 331 336 343 333 337 340 109 46 331 339 300 286 353 320 328 106 231 285 39 22 53 114 146 116 110 105 94 89 96 94 85 66 56 76 83 75 81 77 68 61 57 61 59 56 54 51 51 52
356 353 351 348 346 344 340 340 341 343 343 341 340 340 339 336 331 329 326 323 321 321 316 299 344 63 69 56 76 87 321 358 29 12 349 344 350 343 332 343 339 349 349 336 349 12 48 13 346 12 6 308 338 324 339 331 281 340 39 3 335 1 322 121 124 122 99 88 104 101 81 49 38 65 97 98 82 78 75 66 58 62 62 59 60 55 53 53
353 351 350 348 347 344 343 342 344 346 342 340 342 342 341 339 340 345 351 2 15 40 19 78 86 97 88 64 77 72 10 31 30 3 346 349 359 345 321 351 6 7 352 328 344 9 16 356 11 41 250 287 333 340 358 312 327 1 48 20 310 347 340 219 141 139 107 126 142 112 73 38 47 88 102 103 92 84 79 73 64 63 63 61 63 61 58 55
351 350 349 349 347 345 345 342 344 345 342 345 348 348 353 4 22 30 40 51 59 67 73 95 97 94 84 68 58 53 41 37 15 352 351 353 358 360 338 337 349 10 359 319 314 339 344 343 17 43 243 49 314 284 322 319 354 327 26 118 297 360 339 307 146 127 96 150 183 132 63 36 71 107 109 104 97 90 81 76 72 65 63 63 64 65 61 58
350 349 349 350 348 347 345 343 344 345 346 354 355 0 22 44 51 56 68 67 68 73 81 95 96 81 76 85 147 59 37 20 14 359 354 351 353 1 357 328 328 327 332 315 299 319 323 327 359 7 287 108 236 311 341 345 27 246 348 24 7 48 300 329 23 98 83 185 199 83 93 105 95 105 105 103 97 94 89 83 80 73 68 64 63 68 65 61
348 348 349 351 349 347 347 345 344 347 354 2 10 33 53 58 59 66 74 72 73 76 83 89 79 73 77 71 104 48 19 13 18 8 359 349 346 347 338 332 325 293 304 312 281 299 311 329 2 52 320 347 50 12 344 347 2 54 30 323 3 91 269 335 10 51 102 183 13 62 112 114 98 101 97 103 97 95 95 92 90 83 77 71 63 66 67 64
347 347 347 350 350 349 348 346 347 353 3 12 38 68 68 63 60 63 69 81 82 74 76 67 26 76 89 30 353 17 6 359 5 6 3 351 337 331 333 336 336 296 275 288 339 283 286 310 15 99 27 11 33 19 11 18 348 5 67 292 337 69 287 322 356 14 82 138 16 47 128 124 102 106 98 102 98 96 97 93 89 83 76 73 67 64 66 65
346 345 346 350 350 350 349 347 350 359 9 29 79 87 76 65 55 55 63 92 90 73 63 38 18 89 81 26 6 351 337 331 344 356 357 355 344 332 341 342 358 348 267 229 2 287 275 348 41 52 41 25 16 34 51 30 340 332 30 6 310 88 91 305 344 14 40 78 54 66 105 114 109 108 102 100 98 96 95 93 89 85 81 75 74 69 67 65
346 345 347 350 351 351 351 349 353 4 13 48 103 101 87 72 60 56 58 92 96 53 47 25 26 89 40 8 2 327 324 322 340 355 356 1 1 338 334 293 329 349 340 16 14 11 17 24 50 47 21 14 17 52 69 356 300 299 322 335 310 354 43 42 29 7 49 74 81 86 95 105 105 103 103 100 101 98 97 100 95 91 90 85 83 78 72 70
347 346 348 350 351 352 353 354 357 6 20 61 118 122 104 80 62 54 50 59 62 46 57 355 15 104 343 345 334 329 328 316 336 356 359 0 355 351 348 262 292 8 29 28 8 17 44 37 38 38 5 354 352 38 90 243 259 257 269 272 332 7 29 66 48 54 88 80 74 97 106 112 103 98 103 102 102 103 102 102 99 97 97 94 91 90 86 80
348 348 349 349 350 353 360 6 4 14 34 58 117 130 115 81 57 38 32 47 65 96 125 272 11 85 32 320 332 347 354 345 355 359 0 358 350 4 33 326 357 38 26 53 40 10 64 61 32 7 326 327 331 351 32 349 333 305 289 15 24 55 45 350 60 107 110 88 64 100 106 107 105 106 114 115 108 104 106 103 102 105 103 105 104 103 100 95
348 349 349 348 352 359 10 23 13 27 47 47 76 101 129 130 91 143 7 41 34 56 79 48 55 76 26 329 347 1 14 5 3 1 1 360 1 19 4 12 51 26 351 44 90 38 56 55 2 311 304 332 357 17 38 28 29 28 20 47 40 71 104 295 322 68 96 93 94 110 103 94 92 92 95 103 103 105 114 115 117 119 116 121 119 115 111 106
347 347 348 350 357 5 28 51 36 51 58 54 69 79 118 125 112 156 151 83 16 25 56 45 52 52 6 24 12 8 40 12 359 357 359 2 18 32 355 31 60 38 2 27 64 39 48 33 329 307 304 34 25 28 46 40 47 45 36 75 50 20 44 294 329 20 64 98 126 115 100 87 68 67 61 65 81 86 101 112 119 126 126 129 126 123 119 112
347 348 352 356 3 12 66 74 61 67 61 76 83 82 108 92 111 157 125 98 45 5 37 41 50 29 0 24 11 10 44 31 351 344 357 3 17 23 28 49 54 52 38 52 71 66 61 351 322 326 8 71 44 23 36 37 41 52 52 75 338 326 74 301 314 23 44 85 128 115 94 86 67 65 65 68 84 84 82 90 93 104 113 116 118 118 119 118
350 356 3 5 4 20 108 85 70 71 61 81 84 79 103 83 107 160 116 93 84 348 359 46 74 47 354 346 346 360 53 39 354 348 359 9 5 355 49 75 57 53 58 74 76 74 63 326 321 10 38 61 62 29 29 35 15 1 70 85 318 305 346 262 219 81 55 69 117 111 86 85 95 87 97 95 103 103 98 97 95 99 106 103 103 104 111 118
3 8 12 11 7 43 135 89 70 86 66 76 76 71 94 82 108 155 112 80 43 322 337 12 47 20 336 335 335 309 116 47 23 359 3 13 0 347 17 58 73 61 81 81 75 71 38 335 347 32 35 42 60 42 28 43 16 332 344 115 231 276 305 283 152 103 72 90 172 132 90 273 137 132 165 158 114 113 118 120 123 129 124 118 116 117 113 115
19 17 19 18 16 68 148 90 74 119 85 61 60 77 99 90 116 130 108 73 22 322 351 350 3 1 346 346 339 8 72 12 345 6 16 15 358 152 37 342 51 66 130 91 72 83 11 341 15 43 41 44 51 41 13 52 53 346 292 191 249 247 301 261 156 114 102 204 210 172 149 231 183 179 188 168 130 139 149 145 151 150 138 135 135 137 134 132
32 25 25 25 24 54 146 113 96 138 94 69 76 97 116 113 106 88 75 57 9 341 5 330 339 2 353 356 0 60 69 301 330 12 19 17 3 125 61 14 18 10 208 97 55 33 360 353 15 35 38 45 41 3 326 54 68 308 283 4 332 304 271 221 161 163 200 153 116 170 151 169 197 183 172 155 142 163 175 166 161 149 140 140 136 144 144 147
42 32 26 23 29 54 106 118 116 125 96 134 147 118 150 144 121 84 80 73 337 352 22 309 339 355 348 5 22 79 194 278 2 3 4 21 18 56 64 29 55 17 359 93 102 270 359 20 15 27 30 31 12 313 289 61 73 269 284 332 308 278 223 189 157 182 210 61 7 244 173 147 252 128 146 163 161 186 192 176 165 151 148 151 149 153 148 146
41 29 22 20 36 68 94 103 103 116 106 134 151 149 159 136 110 67 75 105 309 356 175 330 350 336 344 12 20 38 357 358 50 335 354 21 19 36 81 15 64 62 29 71 122 208 130 57 7 48 34 359 315 298 276 111 2 283 306 328 320 349 136 166 150 136 42 59 252 238 160 140 272 148 167 190 184 201 196 175 171 163 161 168 166 163 155 149
35 25 21 26 41 50 91 96 85 108 117 130 157 165 149 107 75 61 52 98 20 359 299 16 4 326 9 26 6 4 24 19 358 353 8 21 21 32 69 6 52 76 44 44 78 147 303 330 330 62 24 315 293 306 329 83 297 314 345 346 354 22 40 80 107 87 60 9 258 223 175 159 300 213 201 209 203 205 190 173 175 172 172 172 163 158 156 155
33 24 23 31 32 20 52 99 72 116 132 140 158 149 113 55 56 84 81 264 8 352 346 4 349 1 34 52 20 352 17 7 344 16 21 9 26 30 25 11 24 50 34 25 33 12 2 7 7 356 340 355 4 352 0 5 360 14 20 20 17 357 7 21 1 45 70 284 257 222 188 159 248 237 215 213 234 247 204 181 176 179 178 169 160 161 161 163
39 26 26 29 27 25 40 50 3 143 145 148 149 109 82 47 32 83 355 319 342 353 357 321 319 355 36 60 32 347 5 11 358 30 36 23 37 44 49 31 349 32 29 1 7 13 6 16 3 330 347 27 36 11 351 353 15 23 14 39 50 6 6 11 338 15 91 255 257 225 165 121 247 239 196 190 214 263 268 199 177 178 171 168 178 176 174 185
45 29 27 26 25 28 35 28 15 144 153 147 127 60 73 77 41 286 306 345 137 259 347 307 320 346 34 49 11 343 20 28 6 21 30 50 46 44 62 36 14 60 52 357 18 10 341 324 356 4 353 16 54 53 355 328 350 0 9 52 74 70 28 332 300 342 303 274 287 304 307 218 293 274 197 184 188 210 264 288 161 167 167 180 190 184 200 215
48 31 28 26 27 27 27 27 54 150 149 126 90 53 66 80 108 24 358 316 221 341 10 26 339 350 34 54 354 341 34 22 29 40 15 24 36 12 12 14 15 36 58 45 36 32 49 330 344 15 326 340 47 55 233 231 302 311 92 96 98 109 106 226 243 291 278 283 298 324 339 194 221 287 203 173 181 195 196 182 151 160 176 185 193 202 220 229
57 34 30 24 22 21 19 19 32 160 152 95 64 61 77 103 209 95 7 270 307 350 331 348 32 34 12 11 356 355 43 2 58 69 28 28 50 3 345 350 1 17 47 57 6 13 89 264 274 302 334 57 55 328 291 111 337 299 83 83 41 123 152 199 221 225 251 301 300 322 329 199 186 294 246 173 196 203 197 213 206 205 203 188 206 225 227 229
66 39 33 22 14 10 7 8 23 116 143 90 67 60 94 158 187 146 198 236 102 317 325 353 38 59 1 347 359 346 345 39 54 64 34 55 83 12 342 314 355 25 46 95 25 357 60 268 270 334 360 47 112 26 30 70 94 325 31 359 277 222 156 159 274 280 12 358 282 266 285 288 328 297 252 221 241 231 217 225 220 216 214 207 222 234 232 232
70 45 31 20 10 3 3 11 41 89 96 79 77 86 128 172 186 181 219 353 116 142 85 32 18 53 17 8 347 334 345 18 33 46 38 40 53 18 351 302 340 37 26 72 160 210 122 288 279 186 92 281 190 91 47 44 89 94 20 285 290 328 106 104 316 330 15 349 268 282 278 282 326 306 261 244 252 245 232 229 227 224 218 223 232 234 236 238
73 76 30 16 6 1 9 37 71 86 83 70 75 98 92 80 205 196 171 125 138 74 77 93 158 118 90 75 324 327 357 16 360 32 67 32 14 53 32 315 318 27 360 9 76 233 115 359 291 203 149 276 336 65 26 356 34 102 171 294 29 59 359 10 41 331 345 311 287 302 302 268 211 212 217 228 235 239 237 226 222 228 222 223 236 239 243 242
57 88 21 4 4 8 37 74 79 66 71 74 79 100 95 91 283 234 176 130 115 89 68 71 110 73 77 119 209 317 13 49 10 36 81 48 8 75 63 326 302 341 345 18 100 280 83 104 290 286 160 212 10 44 3 315 344 19 35 10 32 130 181 250 209 183 236 293 292 310 321 299 235 202 183 212 227 228 234 225 217 225 223 224 238 242 238 225
47 89 4 356 7 39 70 71 65 46 63 87 125 108 84 140 267 258 196 161 107 122 96 28 53 73 64 84 142 302 37 49 35 56 69 24 45 45 29 11 314 323 334 10 88 318 359 114 256 304 329 343 354 8 186 207 303 7 39 18 350 343 40 335 278 207 144 178 262 302 304 275 250 192 179 215 229 218 217 215 216 223 225 228 233 231 220 202
42 89 335 352 1 36 68 58 50 35 70 78 99 88 61 157 183 320 243 197 139 138 125 99 83 98 132 56 15 347 47 31 25 63 54 13 55 15 293 132 300 315 342 15 28 359 6 98 227 296 332 342 248 266 241 178 157 135 113 114 169 323 63 76 310 311 77 142 203 247 281 271 254 188 189 208 211 199 191 187 200 217 219 225 232 234 220 185
52 100 327 355 14 98 77 52 18 37 78 68 67 98 59 122 88 357 334 359 33 64 73 77 76 63 86 85 18 51 69 41 12 47 91 83 83 200 252 303 290 246 74 12 323 305 56 93 93 279 280 239 252 291 9 116 106 97 103 129 135 122 108 125 225 281 345 316 265 192 266 270 261 215 204 199 189 183 173 173 197 227 230 234 251 253 212 168
62 139 349 4 44 107 81 57 345 36 65 105 43 47 29 65 55 9 13 24 21 33 40 40 55 62 72 103 68 65 68 67 34 67 136 137 229 226 226 343 355 95 89 3 294 302 67 66 357 295 292 291 297 325 21 94 74 67 11 54 109 137 143 151 179 188 230 287 307 40 282 270 268 242 202 191 187 181 188 193 204 238 254 239 238 235 187 163
87 144 9 16 44 112 89 90 127 76 76 88 64 31 17 57 65 34 27 10 3 53 61 28 21 61 76 84 81 81 82 88 61 48 137 137 223 218 188 53 51 79 60 231 236 306 306 65 22 358 344 342 340 345 338 318 8 104 221 340 111 120 96 97 123 109 231 248 173 155 253 257 263 268 217 197 189 191 216 220 200 215 238 231 239 237 168 159
73 77 353 19 37 65 96 138 132 121 126 101 79 56 39 37 37 91 98 24 359 85 98 19 351 56 38 58 68 46 40 75 121 3 52 72 279 249 197 204 118 103 212 210 192 209 200 176 100 93 10 317 309 299 288 270 280 176 158 175 164 129 116 129 125 107 210 253 197 196 253 267 275 288 275 244 220 220 238 234 209 210 222 236 250 206 157 173
78 53 339 7 28 48 75 90 92 105 130 116 77 53 68 53 330 261 99 62 4 51 73 25 4 44 27 44 63 29 20 38 73 82 61 316 277 275 211 199 186 164 182 190 179 116 90 243 131 139 181 222 241 252 244 202 241 260 213 216 217 174 128 118 118 165 196 229 274 238 244 275 288 290 291 269 236 227 229 222 234 245 244 249 241 177 178 193
95 84 88 72 29 38 40 26 47 80 123 128 104 55 73 69 346 346 45 59 15 51 65 35 31 43 19 41 67 34 359 27 42 68 106 236 267 291 246 183 192 174 159 167 186 118 76 324 269 162 213 230 238 253 254 212 223 233 224 223 218 192 137 127 178 221 184 112 281 247 227 271 288 291 288 262 230 217 221 232 249 252 249 245 211 182 193 192
85 121 150 128 101 74 50 26 68 77 63 79 97 89 76 59 39 16 351 342 1 33 72 38 18 20 351 178 124 68 5 27 31 24 215 241 288 332 342 302 285 165 135 79 350 112 105 270 234 196 266 267 264 263 249 224 229 228 209 211 215 199 176 185 224 226 164 172 257 261 262 272 279 288 283 245 209 207 221 232 243 250 251 238 205 205 218 206
90 102 37 64 94 139 155 105 86 76 59 62 69 61 85 78 65 44 309 357 4 358 62 80 352 351 4 92 128 108 357 125 203 268 230 212 277 347 7 308 290 6 89 47 343 107 121 254 240 195 286 293 292 278 234 211 240 263 237 221 215 211 204 211 234 230 202 228 255 268 278 275 272 280 274 231 196 208 223 236 253 258 256 246 235 241 243 222
129 135 121 76 72 86 74 47 75 76 52 54 65 50 75 85 87 93 1 55 52 333 31 86 335 344 31 49 87 125 208 186 183 224 192 150 255 220 166 225 262 328 16 51 337 341 75 285 277 106 336 299 294 289 234 220 238 264 262 247 227 225 227 226 233 234 230 249 260 269 279 278 271 261 253 222 199 220 242 255 261 257 254 258 258 258 258 234
102 125 132 110 69 16 19 34 75 86 44 24 58 67 50 59 134 133 33 51 136 133 88 134 285 343 51 50 70 162 221 187 181 212 192 171 201 202 193 195 177 304 341 12 351 357 40 303 332 51 15 289 273 281 275 265 281 287 278 263 238 225 229 226 220 212 203 229 265 284 284 280 272 230 244 241 215 229 251 258 265 266 258 260 262 265 262 231
98 101 107 103 78 20 26 26 44 74 72 337 64 88 76 53 176 111 84 30 88 99 165 179 147 65 65 46 65 210 217 202 206 229 217 193 194 184 195 193 156 151 207 194 226 358 105 103 348 52 359 276 279 308 315 353 3 303 271 245 222 214 223 239 241 227 209 206 246 265 265 274 273 224 253 257 232 245 262 261 267 273 262 256 264 268 254 200